Miscellaneous Local Product
Issued by NWS Hastings, NE

Home | Current Version | Previous Version | Graphics & Text | Print | Product List | Glossary On
Versions: 1 2 3 4 5 6 7 8 9 10 11 12 13 14 15 16 17 18 19 20 21 22 23 24 25 26 27 28 29 30 31 32 33 34 35 36 37 38 39 40 41 42 43 44 45 46 47 48 49 50
628
AXUS43 KGID 262002
MISGRI

GID CWA HOURLY WEATHER ROUNDUP
NATIONAL WEATHER SERVICE HASTINGS NE
300 PM CDT WED JUL 26 2017

NOTE: "FAIR" INDICATES FEW OR NO CLOUDS BELOW 12,000 FEET WITH NO
SIGNIFICANT WEATHER AND/OR OBSTRUCTIONS TO VISIBILITY.

...SOUTH CENTRAL NEBRASKA...

CITY           SKY/WX    TMP DP  RH WIND       PRES   REMARKS
GRAND ISLAND   CLOUDY    75  73  93 NE12      30.02S
HASTINGS       CLOUDY    79  73  82 N13       30.01S
KEARNEY        CLOUDY    75  72  90 NE18      30.03R
ORD            CLOUDY    78  68  71 N8        30.04S
YORK           LGT RAIN  73  73 100 NE13      30.00S
AURORA         CLOUDY    74  73  96 N13       30.01R
LEXINGTON      CLOUDY    75  69  82 NE15G21   30.06R
HOLDREGE       CLOUDY    74  71  89 NE13G18   30.02R
HEBRON         CLOUDY    83  73  70 S7        29.97F

...NEBRASKA PANHANDLE...

CITY           SKY/WX    TMP DP  RH WIND       PRES   REMARKS
CHADRON        CLOUDY    82  54  37 E12G20    30.16S
ALLIANCE       CLOUDY    79  60  52 NE17G23   30.17F
SCOTTSBLUFF    CLOUDY    81  58  45 E13       30.19F
SIDNEY         CLOUDY    82  60  47 NE17G24   30.20S

...WESTERN AND NORTH CENTRAL NEBRASKA...

CITY           SKY/WX    TMP DP  RH WIND       PRES   REMARKS
VALENTINE      CLOUDY    87  62  43 NE18G25   30.10S
AINSWORTH      CLOUDY    78  68  69 NE13      30.10F
ONEILL         CLOUDY    81  71  71 NE10      30.05F
BROKEN BOW     CLOUDY    78  68  71 NE13      30.07S
IMPERIAL       CLOUDY    82  64  54 NE13      30.11S
NORTH PLATTE   CLOUDY    78  67  68 NE7       30.09R
MCCOOK         CLOUDY    76  69  79 N17       30.05R

...EASTERN NEBRASKA...

CITY           SKY/WX    TMP DP  RH WIND       PRES   REMARKS
NORFOLK        CLOUDY    79  70  74 E8        30.01F
SO SIOUX CITY  CLOUDY    82  73  74 E9        30.00S
TEKAMAH        CLOUDY    76  73  91 E5        29.99S
COLUMBUS       RAIN      74  73  97 CALM      30.01S FOG
ALBION         CLOUDY    80  72  75 NE9       30.03S
OMAHA EPPLEY   TSTM      74  71  91 N7        29.98F FOG
OFFUTT AFB     RAIN      75  73  93 NE6       29.98S
MILLARD        RAIN      76  75  96 CALM      29.98F
LINCOLN        CLOUDY    79  75  87 N13       29.97F
NEBRASKA CITY  PTSUNNY   80  78  91 S9        29.98S
BEATRICE       CLOUDY    84  73  69 S6        29.97F
FALLS CITY     CLOUDY    80  74  81 S8        29.96S

...NORTHERN KANSAS...

CITY           SKY/WX    TMP DP  RH WIND       PRES   REMARKS
GOODLAND       CLOUDY    82  66  58 N17G26    30.10S
HILL CITY      PTSUNNY   94  69  44 N12       29.95S HX  99
NORTON         CLOUDY    86  66  51 N15       29.99R
PHILLIPSBURG   MOSUNNY   88  70  55 CALM      29.96S HX  92
SMITH CENTER     N/A     84  72  65 SE10      29.97R
HAYS           CLOUDY    95  69  42 S10       29.92S HX 100
RUSSELL        PTSUNNY   89  68  49 SE8       29.92F HX  93
CONCORDIA      CLOUDY    77  74  90 VRB5      29.95R
SALINA         LGT RAIN  80  75  84 E14       29.93F
TOPEKA         TSTM      78  77  96 W9        30.02R FOG



USA.gov is the U.S. government's official web portal to all federal, state and local government web resources and services.